weather.gov     
National Weather Service

Regional Weather Roundup
NWS Homepage
This page is being discontinued on March 12, 2014.
The same data is available at this site. Please update your bookmarks.
Thank you, and we apologize for the inconvenience.
Please send an email to SR-SRH.Webmaster@noaa.gov with any concerns.


Current Version
Previous Version:    01  02  03  04  05  06  07  08  09  10  11  12  13  14  15  16  17  18  19  20  21  22  23  24  25  26  27  
[Printable]
917
ASUS41 KPHI 301110
RWRPHI

REGIONAL WEATHER ROUNDUP
NATIONAL WEATHER SERVICE MOUNT HOLLY NJ
700 AM EDT WED JUL 30 2014

NOTE:  "FAIR" INDICATES FEW OR NO CLOUDS BELOW 12,000 FEET WITH NO
SIGNIFICANT WEATHER AND/OR OBSTRUCTIONS TO VISIBILITY.

 * = STATION DOES NOT REPORT PRECIPITATION (E.G. RAIN, SNOW, ETC.)
        OR FOG.

NJZ015>026-301200-
SOUTHERN NEW JERSEY

CITY           SKY/WX    TMP DP  RH WIND       PRES   REMARKS
POMONA         CLOUDY    61  57  87 NW6       30.02R
RIO GRANDE*    SUNNY     63  55  77 N3        30.04R
MILLVILLE      SUNNY     57  55  93 NW3       30.03R
WRIGHTSTOWN    SUNNY     58  56  94 S2        30.01R
MOUNT HOLLY    SUNNY     56  55  97 CALM      30.03R
TRENTON        SUNNY     59  55  87 CALM      30.02R

$$
NJZ001>014-301200-
NORTHERN NEW JERSEY

CITY           SKY/WX    TMP DP  RH WIND       PRES   REMARKS
SUSSEX         SUNNY     53  51  93 S5        30.03R
ANDOVER*         N/A     51  50  96 CALM      30.04R
MORRISTOWN     MOSUNNY   54  52  94 CALM      30.02R
NEWARK         MOSUNNY   65  52  62 NW7       30.01R
TETERBORO      SUNNY     63  54  72 NE3       30.01R
CALDWELL       SUNNY     56  53  90 CALM      30.02R
SOMERVILLE     SUNNY     53  51  93 CALM      30.01R
ALLAIRE*       CLOUDY    61  52  72 NW6       30.02R
TOMS RIVER*    PTSUNNY   59  54  82 CALM      30.03R

$$
PAZ043-044-047-054-055-060>062-066>071-301200-
EASTERN PENNSYLVANIA

CITY           SKY/WX    TMP DP  RH WIND       PRES   REMARKS
PHILADELPHIA   PTSUNNY   63  52  67 CALM      30.03R
NORTH PHILA    SUNNY     62  52  69 CALM      30.04R
BLUE BELL      SUNNY     55  54  94 CALM      30.03S
DOYLESTOWN     SUNNY     55  53  93 CALM      30.03R
QUAKERTOWN*    SUNNY     52  50  93 CALM      30.05R
POTTSTOWN      SUNNY     53  51  93 CALM      30.05R
LANCASTER      CLEAR     55  52  89 W3        30.05R
COATESVILLE    CLEAR     55  55 100 N3        30.05R
READING        CLEAR     56  52  86 CALM      30.04R
ALLENTOWN      SUNNY     53  50  89 CALM      30.04R
MOUNT POCONO   SUNNY     49  47  93 CALM      30.05R
HAZLETON       SUNNY     48  46  93 CALM      30.08R FOG
WILKES BARRE   SUNNY     53  49  86 E3        30.04R

$$
DEZALL-MDZ008-012-015-019-020-301200-
DELAWARE AND EASTERN MARYLAND

CITY           SKY/WX    TMP DP  RH WIND       PRES   REMARKS
WILMINGTON     SUNNY     59  54  83 NW3       30.04R
DOVER          CLEAR     60  55  84 NW5       30.02R
GEORGETOWN     CLEAR     61  55  81 VRB3      30.05R
EASTON         CLEAR     59  59 100 CALM      30.08R
PATUXENT       PTCLDY    58  53  84 W6        30.05R
OCEAN CITY     SUNNY     59  55  87 NW5       30.03R
WALLOPS ISLAND CLEAR     63  57  81 N5        30.05R
CAMBRIDGE      CLEAR     59  55  88 CALM      30.05R

$$
PAZ001-021-NYZ056-072-MDZ011-DCZ001-301200-
OTHER NEARBY LOCATIONS

CITY           SKY/WX    TMP DP  RH WIND       PRES   REMARKS
HARRISBURG     CLEAR     59  53  80 CALM      30.05R
STATE COLLEGE  CLEAR     50  50 100 CALM      30.05R
WILLIAMSPORT   CLOUDY    56  53  90 NW3       30.04R FOG
BINGHAMTON     SUNNY     51  50  96 CALM      30.04R
NEW YORK CITY  SUNNY     63  53  70 CALM      30.04R
BALTIMORE      PTCLDY    56  51  84 W3        30.05R
WASHINGTON DC  PTCLDY    60  51  72 CALM      30.07R

$$




U.S. Dept. of Commerce
NOAA National Weather Service
1325 East West Highway
Silver Spring, MD 20910
E-mail: w-nws.webmaster@noaa.gov
Page last modified: May 16, 2007
NATIONAL WEATHER SERVICE: for Safety, for Work, for Fun - FOR LIFE